Location: Brno
(49.2000°N, 16.6330°E)
Time: 08:34:31
(UTC+02:00)

Altair - Visible Passes

Search period start: 31 July 2021 00:00
Search period end: 10 August 2021 00:00
Orbit: 1502 x 1682 km, 47.2° (Epoch: 30 July)

Date Brightness Start Highest point End Pass type
(mag) Time Alt. Az. Time Alt. Az. Time Alt. Az.
31 Jul 9.1 00:28:41 12° ESE 00:28:41 12° ESE 00:31:18 10° ESE visible
31 Jul 8.0 02:26:40 28° S 02:30:44 40° SE 02:39:04 10° ENE visible
31 Jul 7.5 04:25:19 10° WSW 04:34:36 73° SSE 04:43:44 10° E visible
01 Aug 9.2 00:04:32 10° ESE 00:04:32 10° ESE 00:04:51 10° ESE visible
01 Aug 8.0 02:02:32 30° S 02:05:40 38° SE 02:13:53 10° ENE visible
01 Aug 7.5 04:00:31 11° WSW 04:09:28 71° SSE 04:18:35 10° E visible
02 Aug 8.0 01:38:20 32° SSE 01:40:36 36° SE 01:48:41 10° E visible
02 Aug 7.5 03:36:20 15° WSW 03:44:19 70° SSE 03:53:25 10° E visible
03 Aug 8.0 01:14:07 32° SSE 01:15:32 33° SE 01:23:28 10° E visible
03 Aug 7.5 03:12:05 19° WSW 03:19:11 67° SSE 03:28:16 10° E visible
04 Aug 8.1 00:49:50 31° SE 00:50:29 31° SE 00:58:14 10° E visible
04 Aug 7.4 02:47:48 23° SW 02:54:03 65° SSE 03:03:07 10° E visible
04 Aug 7.5 04:49:08 10° W 04:58:28 80° S 05:07:39 10° E visible
05 Aug 8.2 00:25:29 29° SE 00:25:29 29° SE 00:32:59 10° E visible
05 Aug 7.4 02:23:27 28° SW 02:28:55 63° SSE 02:37:58 10° E visible
05 Aug 7.5 04:23:57 10° W 04:33:19 81° S 04:42:30 10° E visible
06 Aug 8.3 00:01:04 27° SE 00:01:04 27° SE 00:07:44 10° E visible
06 Aug 7.5 01:59:02 31° SW 02:03:47 61° SSE 02:12:49 10° E visible
06 Aug 7.4 03:58:46 10° W 04:08:09 81° S 04:17:21 10° E visible
06 Aug 8.4 23:36:33 24° ESE 23:36:33 24° ESE 23:42:26 10° E visible
07 Aug 7.5 01:34:30 35° SW 01:38:40 58° SSE 01:47:40 10° ENE visible
07 Aug 7.4 03:33:34 10° W 03:43:00 80° S 03:52:11 10° E visible
07 Aug 8.5 23:11:54 22° ESE 23:11:54 22° ESE 23:17:07 10° E visible
08 Aug 7.5 01:09:50 37° SSW 01:13:33 56° SSE 01:22:31 10° ENE visible
08 Aug 7.4 03:08:23 10° W 03:17:50 80° S 03:27:02 10° E visible
08 Aug 8.5 22:47:00 20° ESE 22:47:00 20° ESE 22:51:45 10° E visible
09 Aug 7.5 00:44:55 37° SSW 00:48:26 53° SSE 00:57:21 10° ENE visible
09 Aug 7.4 02:43:11 10° WSW 02:52:40 79° S 03:01:53 10° E visible
09 Aug 7.5 04:47:54 10° W 04:57:08 69° SSW 05:06:12 10° ESE visible
09 Aug 8.6 22:21:38 19° ESE 22:21:38 19° ESE 22:26:21 10° E visible
